Location: Erdweis
(48.5167°N, 15.3500°E)
Time: 11:06:28
(UTC+00:00)

X-37B - Pass Details

Date: 02 December 2020
Orbit: 384 x 390 km, 45.0° (Epoch: 02 January)

Event Time Altitude Azimuth Distance (km) Brightness Sun altitude
Rises 18:02:44 0° 265° (W) 2,266 5.7 -28.5°
Reaches altitude 10° 18:04:51 10° 258° (WSW) 1,413 4.3 -28.9°
Enters shadow 18:05:24 14° 255° (WSW) 1,200 3.8 -29.0°
